Weather Service Report


007 
ASUS41 KBTV 030030
RWRBTV
VERMONT REGIONAL WEATHER ROUNDUP
NATIONAL WEATHER SERVICE BURLINGTON VT
800 PM EDT THU JUL 02 2015

NOTE: "FAIR" INDICATES FEW OR NO CLOUDS BELOW 12,000 FEET WITH NO 
SIGNIFICANT WEATHER AND/OR OBSTRUCTIONS TO VISIBILITY.

* THESE REPORTS ARE NOT UNDER NWS QUALITY CONTROL AND/OR DO NOT
  REPORT WEATHER SUCH AS PRECIPITATION AND FOG.

VTZ001>019-030100-
_____VERMONT_____

  
CITY           SKY/WX    TMP DP  RH WIND       PRES   REMARKS
BURLINGTON     PTCLDY    70  45  40 N7        29.90R                  
6HR MIN TEMP:  70; 6HR MAX TEMP:  76;                                

MONTPELIER     CLEAR     65  45  48 CALM      29.94S                  
6HR MIN TEMP:  65; 6HR MAX TEMP:  70;                                

MORRISVILLE    CLEAR     67  47  48 NW3       29.92R                  
6HR MIN TEMP:  67; 6HR MAX TEMP:  74;                                

LYNDONVILLE*   FAIR      63  45  52 W5        29.93R                  
6HR MIN TEMP:  64; 6HR MAX TEMP:  69;                                

MIDDLEBURY*    MOCLDY    63  56  79 CALM      29.89S                  
6HR MIN TEMP:  64; 6HR MAX TEMP:  74;                                

RUTLAND*       CLEAR     68  48  49 CALM      29.90R                  
6HR MIN TEMP:  70; 6HR MAX TEMP:  72;                                

SPRINGFIELD    PTCLDY    70  51  51 CALM      29.88S                  
6HR MIN TEMP:  70; 6HR MAX TEMP:  77;                                

HIGHGATE*      FAIR      65  46  51 CALM      29.90R                  
6HR MIN TEMP:  66; 6HR MAX TEMP:  72;                                

NEWPORT*       FAIR      62  46  57 W5        29.92S                  
6HR MIN TEMP:  63; 6HR MAX TEMP:  69;                                

BENNINGTON     PTCLDY    67  51  56 SW5       29.90R                  
6HR MIN TEMP:  67; 6HR MAX TEMP:  74;                                

MT. MANSFIELD*   N/A     50 N/A N/A NW12        N/A                   

_____LAKE CHAMPLAIN_____

  
CITY           SKY/WX    TMP DP  RH WIND       PRES   REMARKS
BURTON ISLAND*   N/A     70  52  52 MISG        N/A                   
COLCHESTER RF*   N/A     70  48  46 N14         N/A                   
DIAMOND ISL*     N/A     70  52  52 N6          N/A                   

$$

NYZ007-026>031-035-052-083-030100-
_____NORTHERN NEW YORK_____

  
CITY           SKY/WX    TMP DP  RH WIND       PRES   REMARKS
PLATTSBURGH    CLEAR     68  44  42 NW6       29.90R                  
6HR MIN TEMP:  68; 6HR MAX TEMP:  75;                                

SARANAC LAKE   CLEAR     62  43  49 W6        29.93R                  
6HR MIN TEMP:  62; 6HR MAX TEMP:  67;                                

MASSENA        CLEAR     67  45  45 W5        29.91S                  
6HR MIN TEMP:  67; 6HR MAX TEMP:  72;                                

OGDENSBURG*    CLEAR     64  52  63 SW7       29.93R                  
POTSDAM*       CLEAR     64  52  63 W6        29.93R                  
WATERTOWN      CLEAR     62  46  55 SW5       29.95R                  
6HR MIN TEMP:  62; 6HR MAX TEMP:  68;                                

FT DRUM        CLEAR     64  50  61 W5        29.94R                  
6HR MIN TEMP:  64; 6HR MAX TEMP:  69;                                

ALBANY         PTCLDY    72  49  44 NW8       29.89S                  
6HR MIN TEMP:  71; 6HR MAX TEMP:  77;                                

GLENS FALLS    PTCLDY    68  53  58 NW5       29.88R                  
6HR MIN TEMP:  72; 6HR MAX TEMP:  77;                                


$$
NHZ002-005-011-030100-
_____NEW HAMPSHIRE_____

  
CITY           SKY/WX    TMP DP  RH WIND       PRES   REMARKS
LEBANON        PTCLDY    71  50  47 N3        29.87S                  
6HR MIN TEMP:  71; 6HR MAX TEMP:  77;                                

KEENE          MOCLDY    68  55  64 CALM      29.88S                  
6HR MIN TEMP:  72; 6HR MAX TEMP:  75;                                

MT WASHINGTON  MOCLDY    41  36  81 W39         N/A  WCI  28          
6HR MIN TEMP:  38; 6HR MAX TEMP:  42;                                

PLYMOUTH       FAIR      65  61  87 CALM      29.88R                  
6HR MIN TEMP:  69; 6HR MAX TEMP:  74;                                

WHITEFIELD     CLEAR     66  46  48 CALM      29.90R                  
6HR MIN TEMP:  66; 6HR MAX TEMP:  72;                                


$$

_____REGIONAL QUEBEC LOCATIONS_____

  
CITY           SKY/WX    TMP DP  RH WIND       PRES   REMARKS
MONTREAL       PTCLDY    68  46  45 SW12      29.88R                  
QUEBEC CITY    MOCLDY    61  46  59 NW13      29.84R                  
SHERBROOKE     CLEAR     64  48  55 W9        29.88R                  

_____REGIONAL ONTARIO LOCATIONS_____

  
CITY           SKY/WX    TMP DP  RH WIND       PRES   REMARKS
OTTAWA         PTCLDY    66  46  48 W7        29.92R                  

______KEY______
VSB  - VISIBILITY IN MILES
WCI  - WIND CHILL INDEX
HX   - HEAT INDEX
$$
NNNN

Return to Home page


Western Regional Climate Center, wrcc@dri.edu